SIA322 WSSS-EHAM

Flight info

Callsign SIA322
Flight time N/A
Altitude 34000
Route VMR6A VMR B469 VPK M751 VKB A334 HTY W14 PUT L759 TATUX/N0503F360 L759 BBS/N0489F260 W49 KKJ/N0504F360 L760 DPN G333 MERUN L750 BINDO G201 ZB L750 BIROS/N0498F380 L750 RANAH B449 MAMED P130 BODKA M747 SULEL N449 TELLI DCT INDUR UN161 ERZ UL746 SONAD/N0493F400 UL746 ODERO DCT OPT DCT IRLOX DCT EMPOS DCT FOGRE DCT PEPIK DCT ELMEK DCT NAVEK DCT VEXIL DCT KATCE DCT APEBE DCT NORKU
Aircraft A359/H-SDE1E2E3GHIJ1J2J3J5M1P2RWXYZ/LB1D1

Departure

Time N/A
Airport Singapore Changi Airport (WSSS)

Arrival

Time 2026-05-06 01:52
Airport Amsterdam Airport Schiphol (EHAM)
Time Latitude Longitude Altitude Speed Heading
2026-05-06 01:45 52.05443 4.92921 2979 ft 197 kts 318°
2026-05-06 01:45 52.06538 4.91630 2967 ft 195 kts 336°
2026-05-06 01:46 52.07752 4.90660 2959 ft 194 kts 337°
2026-05-06 01:46 52.08919 4.89529 2968 ft 197 kts 326°
2026-05-06 01:46 52.09893 4.87946 2957 ft 200 kts 310°
2026-05-06 01:46 52.10566 4.85953 2957 ft 202 kts 294°
2026-05-06 01:47 52.10901 4.83741 2947 ft 200 kts 283°
2026-05-06 01:47 52.11187 4.81621 2859 ft 184 kts 289°
2026-05-06 01:47 52.11672 4.79712 2580 ft 186 kts 302°
2026-05-06 01:47 52.12474 4.77997 2468 ft 194 kts 317°
2026-05-06 01:48 52.13617 4.76899 2464 ft 192 kts 346°
2026-05-06 01:48 52.14912 4.76454 2457 ft 187 kts 357°
2026-05-06 01:48 52.16121 4.76558 2478 ft 162 kts
2026-05-06 01:48 52.17185 4.76656 2350 ft 147 kts
2026-05-06 01:49 52.18183 4.76731 2143 ft 140 kts
2026-05-06 01:49 52.19131 4.76817 1954 ft 135 kts
2026-05-06 01:49 52.20065 4.76903 1778 ft 135 kts
2026-05-06 01:49 52.21003 4.76989 1596 ft 135 kts
2026-05-06 01:50 52.21938 4.77074 1414 ft 135 kts
2026-05-06 01:50 52.22885 4.77161 1231 ft 136 kts
2026-05-06 01:50 52.23827 4.77246 1050 ft 136 kts
2026-05-06 01:50 52.24772 4.77335 869 ft 136 kts
2026-05-06 01:51 52.25716 4.77422 689 ft 135 kts
2026-05-06 01:51 52.26654 4.77511 486 ft 135 kts
2026-05-06 01:51 52.27591 4.77602 304 ft 134 kts
2026-05-06 01:51 52.28526 4.77690 144 ft 136 kts
2026-05-06 01:52 52.29471 4.77770 14 ft 135 kts
2026-05-06 01:52 52.30300 4.77849 6 ft 77 kts
2026-05-06 01:52 52.30672 4.77881 5 ft 41 kts
2026-05-06 01:52 52.30868 4.77874 3 ft 14 kts 345°
2026-05-06 01:53 52.30953 4.77810 4 ft 14 kts 332°
2026-05-06 01:53 52.31041 4.77736 6 ft 15 kts 333°
2026-05-06 01:53 52.31123 4.77666 5 ft 12 kts 326°
2026-05-06 01:53 52.31153 4.77554 5 ft 11 kts 291°
2026-05-06 01:54 52.31199 4.77510 5 ft 8 kts 353°
2026-05-06 01:54 52.31262 4.77502 5 ft 10 kts 351°
2026-05-06 01:54 52.31332 4.77446 5 ft 11 kts 322°
2026-05-06 01:54 52.31374 4.77359 6 ft 11 kts 309°
2026-05-06 01:55 52.31427 4.77259 5 ft 13 kts 311°
2026-05-06 01:55 52.31480 4.77128 5 ft 14 kts 284°
2026-05-06 01:55 52.31481 4.76957 5 ft 16 kts 267°
2026-05-06 01:55 52.31475 4.76765 5 ft 18 kts 267°
2026-05-06 01:56 52.31467 4.76550 5 ft 19 kts 267°
2026-05-06 01:56 52.31460 4.76324 5 ft 21 kts 267°
2026-05-06 01:56 52.31451 4.76085 5 ft 20 kts 266°
2026-05-06 01:56 52.31444 4.75893 5 ft 13 kts 266°
2026-05-06 01:57 52.31438 4.75737 5 ft 15 kts 266°
2026-05-06 01:57 52.31432 4.75577 5 ft 14 kts 266°
2026-05-06 01:57 52.31408 4.75467 5 ft 10 kts 218°
2026-05-06 01:57 52.31333 4.75450 5 ft 12 kts 178°
2026-05-06 01:58 52.31251 4.75457 6 ft 8 kts 175°
2026-05-06 01:58 52.31221 4.75517 5 ft 8 kts 101°
2026-05-06 01:58 52.31219 4.75564 5 ft 1 kts 91°
2026-05-06 01:58 52.31219 4.75565 5 ft 0 kts 92°
2026-05-06 01:59 52.31219 4.75587 5 ft 0 kts 86°
2026-05-06 01:59 52.31219 4.75590 5 ft 0 kts 86°
2026-05-06 01:59 52.31219 4.75592 5 ft 0 kts 86°